Location: *
(50.3440°N, 18.6237°E)
Time: 17:27:38
(UTC+00:00)

DEBRIS - Pass Details

Date: 30 November 2020
Orbit: 310 x 15212 km, 49.4° (Epoch: 17 January)

Event Time Altitude Azimuth Distance (km) Brightness Sun altitude
Rises 16:52:32 0° 279° (W) 9,566 10.4 -19.4°
Reaches altitude 10° 17:01:49 10° 279° (W) 6,247 9.2 -20.9°
Maximum altitude 17:15:00 74° 199° (SSW) 1,019 4.1 -23.0°
Enters shadow 17:16:23 47° 128° (SE) 1,061 3.9 -23.2°
